Flag for Switzerland Weather past 2 weeks in Geneva, Geneva, Switzerland

Now
63 °F

Mild.


Feels Like: 63 °F
Forecast: 44 / 72 °F
Wind: 2 mph from Northwest

Location: Geneve-Cointrin

Current Time: Oct 2, 2014 at 7:47:15 PM

Latest Report: Oct 2, 2014 at 7:00 PM


Visibility: N/A

Pressure: 30.26 "Hg

Humidity: 72%

Dew point: 53 °F

Location of GenevaLocation

Historic Weather in Geneva — Graph

°F

Geneva temperature yesterday

Maximum temperature yesterday: 71 °F (at 5:00 PM)
Minimum temperature yesterday: 56 °F (at 4:00 AM)
Average temperature yesterday: 62 °F

Past Weeks' High & Low Weather Summary

 TemperatureHumidityPressure
High74 °F (Sep 20, 2:00 PM)95% (Sep 20, 5:00 AM)30.34 "Hg (Sep 20, 5:00 AM)
Low44 °F (Sep 26, 7:00 AM)47% (Sep 23, 5:00 PM)29.81 "Hg (Sep 17, 6:00 PM)
Average60 °F79%30.14 "Hg
* Reported Sep 17 6:00 PM — Oct 2 6:00 PM, Geneva, Weather by CustomWeather, © 2014

Note: Actual official high and low records may vary slightly from our data, if they occured in-between our weather recording intervals... More about our weather records

Advertising

Geneva weather history for previous 24 hours

 ConditionsComfort  
Time TempWeatherWind HumidityBarometerVisibility
6:00 PM
Oct 2
67 °FMild.8 mph60%30.24 "HgN/A
5:00 PM68 °FPassing clouds.8 mph61%30.24 "Hg11 mi
4:00 PM67 °FMild.9 mph61%30.25 "HgN/A
3:00 PM67 °FMild.7 mph62%30.26 "HgN/A
2:00 PM66 °FScattered clouds.9 mph64%30.28 "Hg9 mi
1:00 PM64 °FMild.12 mph69%30.30 "HgN/A
12:00 PM64 °FMild.9 mph73%30.31 "HgN/A
11:00 AM60 °FCool.9 mph82%30.32 "HgN/A
10:00 AM60 °FCool.9 mph83%30.32 "HgN/A
9:00 AM59 °FCool.2 mph86%30.32 "HgN/A
8:00 AM58 °FFog.1 mph89%30.32 "Hg6 mi
7:00 AM57 °FCool.1 mph90%30.31 "HgN/A
6:00 AM56 °FCool.2 mph91%30.32 "HgN/A
5:00 AM54 °FPassing clouds.1 mph91%30.32 "Hg11 mi
4:00 AM53 °FCool.1 mph91%30.32 "HgN/A
3:00 AM53 °FCool.2 mph92%30.33 "HgN/A
2:00 AM54 °FPassing clouds.2 mph90%30.33 "Hg12 mi
1:00 AM55 °FCool.2 mph91%30.33 "HgN/A
12:00 AM56 °FCool.2 mph89%30.33 "HgN/A
11:00 PM
Oct 1
58 °FPassing clouds.1 mph91%30.32 "Hg17 mi
10:00 PM59 °FCool.1 mph86%30.31 "HgN/A
9:00 PM61 °FCool.1 mph85%30.29 "HgN/A
8:00 PM65 °FPassing clouds.3 mph78%30.27 "Hg19 mi
7:00 PM66 °FMild.2 mph73%30.25 "HgN/A
Weather by CustomWeather, © 2014

See weather overviewHow to use our weather pages